Time,TemperatureF,DewpointF,PressureIn,WindDirection,WindDirectionDegrees,WindSpeedMPH,WindSpeedGustMPH,Humidity,HourlyPrecipIn,Conditions,Clouds,dailyrainin,SoftwareType,DateUTC
2013-10-07 00:00:00,71.6,68.8,29.93,SSE,163,0.0,0.0,91,0.00,,,0.00,Wunderground v.1.15,2013-10-07 04:00:00,
2013-10-07 00:10:00,71.5,68.7,29.93,SSE,163,0.0,0.0,91,0.00,,,0.00,Wunderground v.1.15,2013-10-07 04:10:00,
2013-10-07 00:20:00,71.3,68.5,29.93,SSE,163,0.0,0.0,91,0.00,,,0.00,Wunderground v.1.15,2013-10-07 04:20:00,
2013-10-07 00:30:00,71.3,68.5,29.93,SSE,163,0.0,0.0,91,0.00,,,0.00,Wunderground v.1.15,2013-10-07 04:30:00,
2013-10-07 00:40:00,71.2,68.8,29.93,SSE,164,0.0,0.0,92,0.00,,,0.00,Wunderground v.1.15,2013-10-07 04:40:00,
2013-10-07 00:50:00,71.2,68.4,29.92,SSE,164,0.0,0.0,91,0.00,,,0.00,Wunderground v.1.15,2013-10-07 04:50:00,
2013-10-07 01:00:00,71.1,68.3,29.92,NW,319,0.0,0.0,91,0.00,,,0.00,Wunderground v.1.15,2013-10-07 05:00:00,
2013-10-07 01:10:00,71.1,68.3,29.92,NNW,348,0.0,0.0,91,0.00,,,0.00,Wunderground v.1.15,2013-10-07 05:10:00,
2013-10-07 01:20:00,71.1,68.7,29.92,North,355,0.0,0.0,92,0.00,,,0.00,Wunderground v.1.15,2013-10-07 05:20:00,
2013-10-07 01:30:00,71.1,68.7,29.92,ENE,57,0.0,0.0,92,0.00,,,0.00,Wunderground v.1.15,2013-10-07 05:30:00,
2013-10-07 01:40:00,71.1,68.7,29.92,NE,55,0.0,0.0,92,0.00,,,0.00,Wunderground v.1.15,2013-10-07 05:40:00,
2013-10-07 01:50:00,71.2,68.8,29.91,SW,227,0.0,0.0,92,0.00,,,0.00,Wunderground v.1.15,2013-10-07 05:50:00,
2013-10-07 02:00:00,71.3,68.9,29.91,SW,227,0.0,0.0,92,0.00,,,0.00,Wunderground v.1.15,2013-10-07 06:00:00,
2013-10-07 02:10:00,71.3,68.9,29.90,NNE,33,0.0,0.0,92,0.00,,,0.00,Wunderground v.1.15,2013-10-07 06:10:00,
2013-10-07 02:20:00,71.3,68.9,29.90,South,175,0.0,0.0,92,0.00,,,0.00,Wunderground v.1.15,2013-10-07 06:20:00,
2013-10-07 02:30:00,71.2,68.8,29.90,WSW,244,0.0,0.0,92,0.00,,,0.00,Wunderground v.1.15,2013-10-07 06:30:00,
2013-10-07 02:40:00,71.2,68.8,29.90,WSW,244,0.0,0.0,92,0.00,,,0.00,Wunderground v.1.15,2013-10-07 06:40:00,
2013-10-07 02:50:00,71.1,68.7,29.89,WSW,240,0.0,0.0,92,0.00,,,0.00,Wunderground v.1.15,2013-10-07 06:50:00,
2013-10-07 03:00:00,71.0,68.6,29.89,NNE,17,0.0,0.0,92,0.00,,,0.00,Wunderground v.1.15,2013-10-07 07:00:00,
2013-10-07 03:10:00,70.9,68.5,29.88,WSW,251,0.0,0.0,92,0.00,,,0.00,Wunderground v.1.15,2013-10-07 07:10:00,
2013-10-07 03:20:00,70.8,68.4,29.88,WSW,251,0.0,1.0,92,0.00,,,0.00,Wunderground v.1.15,2013-10-07 07:20:00,
2013-10-07 03:30:00,70.8,68.4,29.87,SSE,157,0.0,0.0,92,0.00,,,0.00,Wunderground v.1.15,2013-10-07 07:30:00,
2013-10-07 03:40:00,70.7,68.3,29.87,SW,235,0.0,0.0,92,0.00,,,0.00,Wunderground v.1.15,2013-10-07 07:40:00,
2013-10-07 03:50:00,70.7,68.3,29.87,SW,234,0.0,0.0,92,0.00,,,0.00,Wunderground v.1.15,2013-10-07 07:50:00,
2013-10-07 04:00:00,70.8,68.4,29.87,North,360,0.0,1.0,92,0.00,,,0.00,Wunderground v.1.15,2013-10-07 08:00:00,
2013-10-07 04:10:00,70.8,68.4,29.86,NW,313,0.0,0.0,92,0.00,,,0.00,Wunderground v.1.15,2013-10-07 08:10:00,
2013-10-07 04:20:00,70.9,68.8,29.86,NW,313,0.0,0.0,93,0.00,,,0.00,Wunderground v.1.15,2013-10-07 08:20:00,
2013-10-07 04:30:00,70.9,68.5,29.86,NNE,28,0.0,0.0,92,0.00,,,0.00,Wunderground v.1.15,2013-10-07 08:30:00,
2013-10-07 04:40:00,71.0,68.9,29.86,East,98,0.0,0.0,93,0.00,,,0.00,Wunderground v.1.15,2013-10-07 08:40:00,
2013-10-07 04:50:00,71.1,68.7,29.87,SSW,196,0.0,1.0,92,0.00,,,0.00,Wunderground v.1.15,2013-10-07 08:50:00,
2013-10-07 05:00:00,71.0,68.9,29.87,SSE,168,0.0,0.0,93,0.00,,,0.00,Wunderground v.1.15,2013-10-07 09:00:00,
2013-10-07 05:10:00,71.0,68.9,29.86,SSE,168,0.0,0.0,93,0.00,,,0.00,Wunderground v.1.15,2013-10-07 09:10:00,
2013-10-07 05:20:00,71.0,68.9,29.86,West,265,0.0,0.0,93,0.00,,,0.00,Wunderground v.1.15,2013-10-07 09:20:00,
2013-10-07 05:30:00,71.0,68.9,29.86,WSW,240,0.0,0.0,93,0.00,,,0.00,Wunderground v.1.15,2013-10-07 09:30:00,
2013-10-07 05:40:00,71.0,68.9,29.85,West,259,0.0,0.0,93,0.00,,,0.00,Wunderground v.1.15,2013-10-07 09:40:00,
2013-10-07 05:50:00,70.9,68.8,29.85,WSW,256,0.0,0.0,93,0.00,,,0.00,Wunderground v.1.15,2013-10-07 09:50:00,
2013-10-07 06:00:00,70.9,68.8,29.85,SSW,209,0.0,0.0,93,0.00,,,0.00,Wunderground v.1.15,2013-10-07 10:00:00,
2013-10-07 06:10:00,70.9,68.8,29.85,NE,49,0.0,0.0,93,0.00,,,0.00,Wunderground v.1.15,2013-10-07 10:10:00,
2013-10-07 06:20:00,70.9,68.8,29.85,WNW,294,0.0,0.0,93,0.00,,,0.00,Wunderground v.1.15,2013-10-07 10:20:00,
2013-10-07 06:30:00,70.9,68.8,29.85,NW,321,0.0,0.0,93,0.00,,,0.00,Wunderground v.1.15,2013-10-07 10:30:00,
2013-10-07 06:40:00,70.8,68.7,29.85,SW,231,0.0,0.0,93,0.00,,,0.00,Wunderground v.1.15,2013-10-07 10:40:00,
2013-10-07 06:50:00,70.8,68.7,29.85,SW,232,0.0,0.0,93,0.00,,,0.00,Wunderground v.1.15,2013-10-07 10:50:00,
2013-10-07 07:00:00,70.9,68.8,29.85,SW,227,0.0,2.0,93,0.00,,,0.00,Wunderground v.1.15,2013-10-07 11:00:00,
2013-10-07 07:10:00,70.9,68.8,29.85,SW,226,0.0,0.0,93,0.00,,,0.00,Wunderground v.1.15,2013-10-07 11:10:00,
2013-10-07 07:20:00,71.0,68.9,29.85,West,277,0.0,2.0,93,0.00,,,0.00,Wunderground v.1.15,2013-10-07 11:20:00,
2013-10-07 07:30:00,71.1,69.0,29.85,NNW,331,1.0,3.0,93,0.00,,,0.00,Wunderground v.1.15,2013-10-07 11:30:00,
2013-10-07 07:40:00,71.2,69.1,29.85,SW,221,1.0,1.0,93,0.00,,,0.00,Wunderground v.1.15,2013-10-07 11:40:00,
2013-10-07 07:50:00,71.2,69.1,29.85,East,97,1.0,1.0,93,0.00,,,0.01,Wunderground v.1.15,2013-10-07 11:50:00,
2013-10-07 08:00:00,71.1,69.0,29.85,SSE,161,0.0,0.0,93,0.00,,,0.01,Wunderground v.1.15,2013-10-07 12:00:00,
2013-10-07 08:10:00,70.9,69.1,29.86,South,172,0.0,0.0,94,0.00,,,0.01,Wunderground v.1.15,2013-10-07 12:10:00,
2013-10-07 08:20:00,70.9,69.1,29.86,SSW,194,0.0,0.0,94,0.11,,,0.03,Wunderground v.1.15,2013-10-07 12:20:00,
2013-10-07 08:30:00,70.8,69.0,29.87,SE,132,0.0,0.0,94,0.06,,,0.04,Wunderground v.1.15,2013-10-07 12:30:00,
2013-10-07 08:40:00,70.8,69.0,29.87,SE,132,0.0,0.0,94,0.05,,,0.04,Wunderground v.1.15,2013-10-07 12:40:00,
2013-10-07 08:50:00,70.8,69.0,29.87,NNE,26,0.0,2.0,94,0.00,,,0.04,Wunderground v.1.15,2013-10-07 12:50:00,
2013-10-07 09:00:00,70.8,69.0,29.87,ESE,103,0.0,0.0,94,0.23,,,0.07,Wunderground v.1.15,2013-10-07 13:00:00,
2013-10-07 09:10:00,70.7,68.9,29.87,SSW,205,0.0,1.0,94,0.30,,,0.11,Wunderground v.1.15,2013-10-07 13:10:00,
2013-10-07 09:20:00,70.6,68.8,29.87,SSW,206,0.0,1.0,94,0.30,,,0.17,Wunderground v.1.15,2013-10-07 13:20:00,
2013-10-07 09:30:00,70.7,69.2,29.87,SSE,164,0.0,1.0,95,0.27,,,0.23,Wunderground v.1.15,2013-10-07 13:30:00,
2013-10-07 09:40:00,70.7,69.2,29.88,SSE,164,0.0,0.0,95,0.07,,,0.24,Wunderground v.1.15,2013-10-07 13:40:00,
2013-10-07 09:50:00,70.8,69.3,29.88,SSE,164,0.0,0.0,95,0.00,,,0.24,Wunderground v.1.15,2013-10-07 13:50:00,
2013-10-07 10:00:00,70.9,69.4,29.88,SSE,164,0.0,0.0,95,0.00,,,0.24,Wunderground v.1.15,2013-10-07 14:00:00,
2013-10-07 10:10:00,70.9,69.4,29.88,SSE,165,0.0,0.0,95,0.47,,,0.29,Wunderground v.1.15,2013-10-07 14:10:00,
2013-10-07 10:20:00,70.9,69.4,29.89,NW,310,1.0,1.0,95,0.36,,,0.34,Wunderground v.1.15,2013-10-07 14:20:00,
2013-10-07 10:30:00,71.0,69.5,29.88,WSW,256,1.0,1.0,95,0.32,,,0.44,Wunderground v.1.15,2013-10-07 14:30:00,
2013-10-07 10:40:00,70.6,69.1,29.89,WSW,255,1.0,1.0,95,0.24,,,0.59,Wunderground v.1.15,2013-10-07 14:40:00,
2013-10-07 10:50:00,70.2,68.7,29.89,West,269,0.0,1.0,95,0.36,,,0.66,Wunderground v.1.15,2013-10-07 14:50:00,
2013-10-07 11:00:00,70.2,68.7,29.89,West,264,0.0,1.0,95,0.32,,,0.73,Wunderground v.1.15,2013-10-07 15:00:00,
2013-10-07 11:10:00,70.1,68.6,29.89,West,276,0.0,0.0,95,0.72,,,0.89,Wunderground v.1.15,2013-10-07 15:10:00,
2013-10-07 11:20:00,70.0,68.5,29.88,West,269,0.0,0.0,95,0.19,,,0.98,Wunderground v.1.15,2013-10-07 15:20:00,
2013-10-07 11:30:00,70.1,68.6,29.87,WSW,241,0.0,0.0,95,0.09,,,0.99,Wunderground v.1.15,2013-10-07 15:30:00,
2013-10-07 11:40:00,70.2,68.7,29.87,West,266,1.0,2.0,95,0.04,,,0.99,Wunderground v.1.15,2013-10-07 15:40:00,
2013-10-07 11:50:00,70.3,68.8,29.88,WNW,287,1.0,1.0,95,0.00,,,0.99,Wunderground v.1.15,2013-10-07 15:50:00,
2013-10-07 12:00:00,69.5,67.7,29.88,West,280,1.0,1.0,94,1.09,,,1.11,Wunderground v.1.15,2013-10-07 16:00:00,
2013-10-07 12:10:00,68.2,66.4,29.87,West,279,0.0,2.0,94,0.23,,,1.19,Wunderground v.1.15,2013-10-07 16:10:00,
2013-10-07 12:20:00,67.5,65.7,29.88,WSW,252,1.0,1.0,94,0.14,,,1.21,Wunderground v.1.15,2013-10-07 16:20:00,
2013-10-07 12:30:00,67.5,66.0,29.87,West,281,0.0,1.0,95,0.33,,,1.34,Wunderground v.1.15,2013-10-07 16:30:00,
2013-10-07 12:40:00,67.7,66.2,29.88,WNW,294,1.0,1.0,95,0.57,,,1.38,Wunderground v.1.15,2013-10-07 16:40:00,
2013-10-07 12:50:00,67.9,66.4,29.88,West,267,1.0,1.0,95,0.33,,,1.47,Wunderground v.1.15,2013-10-07 16:50:00,
2013-10-07 13:00:00,68.0,66.5,29.87,West,267,0.0,0.0,95,0.08,,,1.49,Wunderground v.1.15,2013-10-07 17:00:00,
2013-10-07 13:10:00,68.3,67.1,29.86,West,267,0.0,0.0,96,0.17,,,1.53,Wunderground v.1.15,2013-10-07 17:10:00,
2013-10-07 13:20:00,68.3,66.8,29.87,West,267,0.0,0.0,95,0.07,,,1.54,Wunderground v.1.15,2013-10-07 17:20:00,
2013-10-07 13:30:00,68.3,66.8,29.87,West,267,0.0,0.0,95,0.11,,,1.57,Wunderground v.1.15,2013-10-07 17:30:00,
2013-10-07 13:40:00,68.2,66.7,29.87,West,267,0.0,0.0,95,1.05,,,1.64,Wunderground v.1.15,2013-10-07 17:40:00,
2013-10-07 13:50:00,68.0,66.5,29.87,West,267,0.0,0.0,95,0.16,,,1.71,Wunderground v.1.15,2013-10-07 17:50:00,
2013-10-07 14:00:00,67.8,66.3,29.87,West,267,0.0,0.0,95,0.91,,,1.78,Wunderground v.1.15,2013-10-07 18:00:00,
2013-10-07 14:10:00,67.7,66.2,29.87,West,267,0.0,0.0,95,0.38,,,1.87,Wunderground v.1.15,2013-10-07 18:10:00,
2013-10-07 14:20:00,67.5,66.0,29.87,West,267,0.0,0.0,95,0.16,,,1.90,Wunderground v.1.15,2013-10-07 18:20:00,
2013-10-07 14:30:00,67.5,66.0,29.87,West,267,0.0,0.0,95,0.09,,,1.91,Wunderground v.1.15,2013-10-07 18:30:00,
2013-10-07 14:40:00,67.6,66.1,29.86,West,267,0.0,0.0,95,0.07,,,1.92,Wunderground v.1.15,2013-10-07 18:40:00,
2013-10-07 14:50:00,67.8,66.6,29.87,West,267,0.0,0.0,96,0.00,,,1.92,Wunderground v.1.15,2013-10-07 18:50:00,
2013-10-07 15:00:00,67.9,66.4,29.86,West,267,0.0,0.0,95,0.00,,,1.92,Wunderground v.1.15,2013-10-07 19:00:00,
2013-10-07 15:10:00,68.0,66.8,29.86,West,267,0.0,0.0,96,0.00,,,1.92,Wunderground v.1.15,2013-10-07 19:10:00,
2013-10-07 15:20:00,68.0,66.5,29.86,West,267,0.0,0.0,95,0.00,,,1.92,Wunderground v.1.15,2013-10-07 19:20:00,
2013-10-07 15:30:00,68.0,66.5,29.86,West,267,0.0,0.0,95,0.00,,,1.92,Wunderground v.1.15,2013-10-07 19:30:00,
2013-10-07 15:40:00,68.4,67.2,29.86,West,267,0.0,0.0,96,0.00,,,1.92,Wunderground v.1.15,2013-10-07 19:40:00,
2013-10-07 15:50:00,68.7,67.5,29.86,West,267,0.0,0.0,96,0.00,,,1.92,Wunderground v.1.15,2013-10-07 19:50:00,
2013-10-07 16:00:00,69.0,67.8,29.86,West,267,0.0,0.0,96,0.00,,,1.92,Wunderground v.1.15,2013-10-07 20:00:00,
2013-10-07 16:10:00,69.1,67.9,29.86,West,267,0.0,0.0,96,0.00,,,1.92,Wunderground v.1.15,2013-10-07 20:10:00,
2013-10-07 16:20:00,69.4,68.2,29.86,WSW,238,0.0,0.0,96,0.00,,,1.92,Wunderground v.1.15,2013-10-07 20:20:00,
2013-10-07 16:30:00,69.3,67.8,29.86,West,271,0.0,0.0,95,0.00,,,1.92,Wunderground v.1.15,2013-10-07 20:30:00,
2013-10-07 16:40:00,69.4,67.9,29.86,West,271,0.0,0.0,95,0.00,,,1.92,Wunderground v.1.15,2013-10-07 20:40:00,
2013-10-07 16:50:00,69.6,68.1,29.85,West,271,0.0,0.0,95,0.00,,,1.92,Wunderground v.1.15,2013-10-07 20:50:00,
2013-10-07 17:00:00,69.7,68.2,29.86,West,271,0.0,0.0,95,0.00,,,1.92,Wunderground v.1.15,2013-10-07 21:00:00,
2013-10-07 17:10:00,69.7,68.2,29.86,West,271,0.0,0.0,95,0.00,,,1.92,Wunderground v.1.15,2013-10-07 21:10:00,
2013-10-07 17:20:00,69.7,68.5,29.86,West,271,0.0,0.0,96,0.00,,,1.92,Wunderground v.1.15,2013-10-07 21:20:00,
2013-10-07 17:30:00,69.7,68.5,29.86,West,271,0.0,0.0,96,0.00,,,1.92,Wunderground v.1.15,2013-10-07 21:30:00,
2013-10-07 17:40:00,69.6,68.4,29.87,West,271,0.0,0.0,96,0.00,,,1.92,Wunderground v.1.15,2013-10-07 21:40:00,
2013-10-07 17:50:00,69.6,68.4,29.87,West,271,0.0,0.0,96,0.00,,,1.92,Wunderground v.1.15,2013-10-07 21:50:00,
2013-10-07 18:00:00,69.6,68.4,29.87,West,271,0.0,0.0,96,0.00,,,1.92,Wunderground v.1.15,2013-10-07 22:00:00,
2013-10-07 18:10:00,69.7,68.5,29.88,West,271,0.0,0.0,96,0.00,,,1.92,Wunderground v.1.15,2013-10-07 22:10:00,
2013-10-07 18:20:00,69.7,68.5,29.88,West,271,0.0,0.0,96,0.00,,,1.92,Wunderground v.1.15,2013-10-07 22:20:00,
2013-10-07 18:30:00,69.7,68.5,29.88,West,271,0.0,0.0,96,0.00,,,1.92,Wunderground v.1.15,2013-10-07 22:30:00,
2013-10-07 18:40:00,69.6,68.4,29.88,West,271,0.0,0.0,96,0.00,,,1.92,Wunderground v.1.15,2013-10-07 22:40:00,
2013-10-07 18:50:00,69.5,68.3,29.89,West,271,0.0,0.0,96,0.00,,,1.92,Wunderground v.1.15,2013-10-07 22:50:00,
2013-10-07 19:00:00,69.5,68.3,29.89,West,271,0.0,0.0,96,0.00,,,1.92,Wunderground v.1.15,2013-10-07 23:00:00,
2013-10-07 19:10:00,69.4,68.2,29.89,West,271,0.0,0.0,96,0.00,,,1.92,Wunderground v.1.15,2013-10-07 23:10:00,
2013-10-07 19:20:00,69.1,67.9,29.90,East,90,0.0,0.0,96,0.00,,,1.92,Wunderground v.1.15,2013-10-07 23:20:00,
2013-10-07 19:30:00,68.5,67.0,29.91,NW,310,0.0,0.0,95,0.00,,,1.92,Wunderground v.1.15,2013-10-07 23:30:00,
2013-10-07 19:40:00,67.7,66.2,29.91,NW,309,0.0,0.0,95,0.00,,,1.92,Wunderground v.1.15,2013-10-07 23:40:00,
2013-10-07 19:50:00,67.1,65.3,29.91,NNW,334,1.0,1.0,94,0.00,,,1.92,Wunderground v.1.15,2013-10-07 23:50:00,
2013-10-07 20:00:00,66.8,65.3,29.91,NW,325,0.0,0.0,95,0.00,,,1.92,Wunderground v.1.15,2013-10-08 00:00:00,
2013-10-07 20:10:00,66.6,65.1,29.92,West,268,0.0,0.0,95,0.00,,,1.92,Wunderground v.1.15,2013-10-08 00:10:00,
2013-10-07 20:20:00,66.2,64.4,29.92,NW,309,1.0,1.0,94,0.00,,,1.92,Wunderground v.1.15,2013-10-08 00:20:00,
2013-10-07 20:30:00,65.8,64.0,29.93,NW,309,0.0,0.0,94,0.00,,,1.92,Wunderground v.1.15,2013-10-08 00:30:00,
2013-10-07 20:40:00,65.4,63.3,29.93,NW,309,0.0,0.0,93,0.00,,,1.92,Wunderground v.1.15,2013-10-08 00:40:00,
2013-10-07 20:50:00,64.9,62.8,29.94,NW,310,0.0,0.0,93,0.00,,,1.92,Wunderground v.1.15,2013-10-08 00:50:00,
2013-10-07 21:00:00,64.7,62.9,29.95,NW,311,0.0,0.0,94,0.00,,,1.92,Wunderground v.1.15,2013-10-08 01:00:00,
2013-10-07 21:10:00,64.9,63.1,29.95,NW,311,0.0,0.0,94,0.00,,,1.92,Wunderground v.1.15,2013-10-08 01:10:00,
2013-10-07 21:20:00,64.3,62.2,29.95,NW,311,0.0,0.0,93,0.00,,,1.92,Wunderground v.1.15,2013-10-08 01:20:00,
2013-10-07 21:30:00,63.7,61.6,29.96,NW,311,0.0,0.0,93,0.00,,,1.92,Wunderground v.1.15,2013-10-08 01:30:00,
2013-10-07 21:40:00,63.6,61.5,29.96,NW,311,0.0,0.0,93,0.00,,,1.92,Wunderground v.1.15,2013-10-08 01:40:00,
2013-10-07 21:50:00,63.4,61.3,29.97,NW,311,0.0,0.0,93,0.00,,,1.92,Wunderground v.1.15,2013-10-08 01:50:00,
2013-10-07 22:00:00,63.4,61.6,29.97,NW,311,0.0,0.0,94,0.00,,,1.92,Wunderground v.1.15,2013-10-08 02:00:00,
2013-10-07 22:10:00,63.4,61.6,29.98,NW,311,0.0,0.0,94,0.00,,,1.92,Wunderground v.1.15,2013-10-08 02:10:00,
2013-10-07 22:20:00,63.1,60.7,29.99,NW,311,0.0,0.0,92,0.00,,,1.92,Wunderground v.1.15,2013-10-08 02:20:00,
2013-10-07 22:30:00,62.6,60.2,29.99,NW,311,0.0,0.0,92,0.00,,,1.92,Wunderground v.1.15,2013-10-08 02:30:00,
2013-10-07 22:40:00,62.5,59.8,29.99,NW,311,0.0,0.0,91,0.00,,,1.92,Wunderground v.1.15,2013-10-08 02:40:00,
2013-10-07 22:50:00,62.4,59.7,30.00,NW,311,0.0,0.0,91,0.00,,,1.92,Wunderground v.1.15,2013-10-08 02:50:00,
2013-10-07 23:00:00,62.4,59.4,29.99,NNW,338,0.0,0.0,90,0.00,,,1.92,Wunderground v.1.15,2013-10-08 03:00:00,
2013-10-07 23:10:00,62.3,59.0,29.99,NW,321,1.0,1.0,89,0.00,,,1.92,Wunderground v.1.15,2013-10-08 03:10:00,
2013-10-07 23:20:00,62.3,59.0,29.99,NW,313,0.0,0.0,89,0.00,,,1.92,Wunderground v.1.15,2013-10-08 03:20:00,
2013-10-07 23:30:00,62.3,59.6,30.00,WNW,300,0.0,0.0,91,0.00,,,1.92,Wunderground v.1.15,2013-10-08 03:30:00,
2013-10-07 23:40:00,62.3,59.0,30.00,NNW,342,0.0,0.0,89,0.00,,,1.92,Wunderground v.1.15,2013-10-08 03:40:00,
2013-10-07 23:50:00,61.9,58.3,30.00,North,355,0.0,1.0,88,0.00,,,1.92,Wunderground v.1.15,2013-10-08 03:50:00,